| time (UTC) | temp C | wind direction | speed KPH | gust KPH | rain 1hr cm | rain 24hr cm | rain mn cm | humidity % | barometer mb |
| 20260831080027 | 18 | 274 | 0.0 | 4.8 | 0.00 | 0.89 | 0.89 | 81 | 1016.6 |
| 20260831074524 | 18 | 248 | 0.0 | 9.7 | 0.00 | 0.89 | 0.89 | 80 | 1016.5 |
| 20260831073034 | 18 | 286 | 0.0 | 6.4 | 0.00 | 0.89 | 0.89 | 83 | 1016.4 |
| 20260831071522 | 17 | 290 | 0.0 | 8.0 | 0.00 | 0.89 | 0.89 | 86 | 1016.4 |
| 20260831070021 | 17 | 286 | 0.0 | 4.8 | 0.00 | 0.89 | 0.89 | 87 | 1016.3 |
| 20260831064523 | 17 | 298 | 0.0 | 4.8 | 0.00 | 0.89 | 0.89 | 89 | 1016.1 |
| 20260831063024 | 17 | 298 | 0.0 | 6.4 | 0.00 | 0.89 | 0.89 | 91 | 1016.0 |
| 20260831061517 | 16 | 294 | 0.0 | 0.0 | 0.00 | 0.89 | 0.89 | 94 | 1015.9 |
| 20260831060016 | 16 | 294 | 0.0 | 3.2 | 0.00 | 0.89 | 0.89 | 94 | 1015.8 |
| 20260831054515 | 16 | 288 | 0.0 | 8.0 | 0.00 | 0.89 | 0.89 | 95 | 1015.8 |
| 20260831053015 | 16 | 248 | 0.0 | 4.8 | 0.00 | 0.89 | 0.89 | 95 | 1015.7 |
| 20260831051513 | 16 | 304 | 0.0 | 1.6 | 0.00 | 0.89 | 0.89 | 96 | 1015.6 |
| 20260831050012 | 16 | 304 | 0.0 | 0.0 | 0.00 | 0.89 | 0.89 | 96 | 1015.5 |
| 20260831044512 | 16 | 304 | 0.0 | 1.6 | 0.00 | 0.89 | 0.89 | 96 | 1015.3 |
| 20260831043013 | 16 | 304 | 0.0 | 1.6 | 0.00 | 0.89 | 0.89 | 96 | 1015.2 |
| 20260831041508 | 16 | 304 | 0.0 | 0.0 | 0.00 | 0.89 | 0.89 | 96 | 1015.0 |
| 20260831040009 | 16 | 304 | 0.0 | 0.0 | 0.00 | 0.89 | 0.89 | 95 | 1014.9 |
| 20260831034505 | 16 | 304 | 0.0 | 0.0 | 0.00 | 0.89 | 0.89 | 96 | 1014.7 |
| 20260831033006 | 16 | 304 | 0.0 | 0.0 | 0.00 | 0.89 | 0.89 | 95 | 1014.8 |
| 20260831031505 | 16 | 304 | 0.0 | 0.0 | 0.03 | 0.89 | 0.89 | 96 | 1014.6 |
| 20260831030003 | 16 | 304 | 0.0 | 0.0 | 0.03 | 0.89 | 0.89 | 95 | 1014.4 |
| 20260831024503 | 16 | 304 | 0.0 | 0.0 | 0.08 | 0.89 | 0.89 | 95 | 1014.2 |
| 20260831023002 | 16 | 304 | 0.0 | 0.0 | 0.13 | 0.89 | 0.89 | 95 | 1014.3 |
| 20260831021501 | 16 | 304 | 0.0 | 0.0 | 0.15 | 0.86 | 0.86 | 95 | 1014.0 |
| 20260831020001 | 16 | 304 | 0.0 | 0.0 | 0.30 | 0.86 | 0.86 | 94 | 1014.1 |
| 20260831014604 | 16 | 304 | 0.0 | 0.0 | 0.33 | 0.79 | 0.79 | 94 | 1014.4 |
| 20260831013100 | 16 | 304 | 0.0 | 0.0 | 0.76 | 0.76 | 0.76 | 93 | 1014.6 |
| 20260831011559 | 16 | 304 | 0.0 | 0.0 | 0.71 | 0.71 | 0.71 | 93 | 1014.4 |
| 20260831010110 | 17 | 303 | 0.0 | 0.0 | 0.56 | 0.56 | 0.56 | 92 | 1014.6 |
| 20260831004555 | 17 | 288 | 1.6 | 14.5 | 0.46 | 0.46 | 0.46 | 89 | 1014.7 |
| 20260831003103 | 18 | 76 | 0.0 | 0.0 | 0.00 | 0.00 | 0.00 | 82 | 1012.9 |
| 20260831001550 | 18 | 76 | 0.0 | 1.6 | 0.00 | 0.00 | 0.00 | 82 | 1012.6 |
| 20260831000052 | 18 | 76 | 0.0 | 3.2 | 0.00 | 0.00 | 0.00 | 82 | 1012.5 |
| 20260830234554 | 18 | 74 | 0.0 | 3.2 | 0.00 | 0.00 | 0.00 | 82 | 1012.8 |
| 20260830233047 | 18 | 74 | 0.0 | 3.2 | 0.00 | 0.00 | 0.00 | 82 | 1012.9 |
| 20260830231548 | 18 | 78 | 0.0 | 3.2 | 0.00 | 0.00 | 0.00 | 83 | 1013.0 |
| 20260830230047 | 17 | 355 | 0.0 | 0.0 | 0.00 | 0.00 | 0.00 | 85 | 1013.4 |
| 20260830224550 | 17 | 355 | 0.0 | 0.0 | 0.00 | 0.00 | 0.00 | 85 | 1013.5 |
| 20260830223038 | 17 | 355 | 0.0 | 0.0 | 0.00 | 0.00 | 0.00 | 84 | 1013.6 |
| 20260830221539 | 17 | 355 | 0.0 | 0.0 | 0.00 | 0.00 | 0.00 | 84 | 1013.7 |
| 20260830220037 | 17 | 355 | 0.0 | 0.0 | 0.00 | 0.00 | 0.00 | 85 | 1013.7 |
| 20260830214534 | 17 | 355 | 0.0 | 0.0 | 0.00 | 0.00 | 0.00 | 84 | 1014.0 |
| 20260830213033 | 17 | 355 | 0.0 | 0.0 | 0.00 | 0.00 | 0.00 | 83 | 1014.0 |
| 20260830211533 | 17 | 348 | 0.0 | 0.0 | 0.00 | 0.00 | 0.00 | 84 | 1013.9 |
| 20260830210032 | 17 | 286 | 0.0 | 1.6 | 0.00 | 0.00 | 0.00 | 84 | 1013.9 |
| 20260830204535 | 17 | 286 | 0.0 | 0.0 | 0.00 | 0.00 | 0.00 | 82 | 1014.0 |
| 20260830203032 | 18 | 286 | 0.0 | 0.0 | 0.00 | 0.00 | 0.00 | 82 | 1014.2 |
| 20260830201530 | 18 | 286 | 0.0 | 0.0 | 0.00 | 0.00 | 0.00 | 83 | 1014.1 |
| 20260830200031 | 18 | 286 | 0.0 | 0.0 | 0.00 | 0.00 | 0.00 | 83 | 1014.2 |
| 20260830194530 | 18 | 286 | 0.0 | 0.0 | 0.00 | 0.00 | 0.00 | 82 | 1014.2 |
| 20260830193030 | 19 | 286 | 0.0 | 0.0 | 0.00 | 0.00 | 0.00 | 81 | 1014.3 |
| 20260830191529 | 20 | 286 | 0.0 | 0.0 | 0.00 | 0.00 | 0.00 | 79 | 1014.3 |
| 20260830190034 | 20 | 286 | 0.0 | 0.0 | 0.00 | 0.00 | 0.00 | 78 | 1014.3 |
| 20260830184529 | 20 | 286 | 0.0 | 0.0 | 0.00 | 0.00 | 0.00 | 76 | 1014.2 |
| 20260830183028 | 21 | 286 | 0.0 | 0.0 | 0.00 | 0.00 | 0.00 | 73 | 1014.0 |
| 20260830181528 | 21 | 286 | 0.0 | 0.0 | 0.00 | 0.00 | 0.00 | 72 | 1014.0 |
| 20260830180026 | 22 | 286 | 0.0 | 0.0 | 0.00 | 0.00 | 0.00 | 69 | 1014.0 |
| 20260830174530 | 23 | 286 | 0.0 | 0.0 | 0.00 | 0.00 | 0.00 | 67 | 1013.9 |
| 20260830173033 | 23 | 286 | 0.0 | 0.0 | 0.00 | 0.00 | 0.00 | 65 | 1013.9 |
| 20260830171526 | 23 | 286 | 0.0 | 1.6 | 0.00 | 0.00 | 0.00 | 64 | 1013.9 |
| 20260830170025 | 23 | 286 | 0.0 | 0.0 | 0.00 | 0.00 | 0.00 | 63 | 1013.9 |
| 20260830164530 | 24 | 286 | 0.0 | 1.6 | 0.00 | 0.00 | 0.00 | 63 | 1013.9 |
| 20260830163025 | 24 | 286 | 0.0 | 0.0 | 0.00 | 0.00 | 0.00 | 60 | 1013.9 |
| 20260830161523 | 24 | 286 | 0.0 | 1.6 | 0.00 | 0.00 | 0.00 | 62 | 1013.9 |
| 20260830160024 | 25 | 278 | 0.0 | 3.2 | 0.00 | 0.00 | 0.00 | 60 | 1014.1 |
| 20260830154522 | 25 | 294 | 0.0 | 3.2 | 0.00 | 0.00 | 0.00 | 60 | 1014.1 |
| 20260830153039 | 25 | 294 | 0.0 | 3.2 | 0.00 | 0.00 | 0.00 | 61 | 1014.1 |
| 20260830151520 | 24 | 294 | 0.0 | 4.8 | 0.00 | 0.00 | 0.00 | 63 | 1014.1 |
| 20260830150019 | 25 | 248 | 0.0 | 4.8 | 0.00 | 0.00 | 0.00 | 63 | 1014.2 |
| 20260830144520 | 24 | 250 | 0.0 | 3.2 | 0.00 | 0.00 | 0.00 | 65 | 1014.2 |
| 20260830143020 | 24 | 232 | 0.0 | 6.4 | 0.00 | 0.00 | 0.00 | 64 | 1014.2 |
| 20260830141520 | 25 | 236 | 0.0 | 6.4 | 0.00 | 0.00 | 0.00 | 62 | 1014.2 |
| 20260830140017 | 25 | 234 | 0.0 | 4.8 | 0.00 | 0.00 | 0.00 | 64 | 1014.2 |
| 20260830134517 | 25 | 234 | 0.0 | 4.8 | 0.00 | 0.00 | 0.00 | 62 | 1014.3 |
| 20260830133016 | 25 | 219 | 0.0 | 6.4 | 0.00 | 0.00 | 0.00 | 63 | 1014.4 |
| 20260830131515 | 24 | 231 | 0.0 | 4.8 | 0.00 | 0.00 | 0.00 | 65 | 1014.6 |
| 20260830130013 | 25 | 21 | 0.0 | 6.4 | 0.00 | 0.00 | 0.00 | 63 | 1014.6 |
| 20260830124511 | 25 | 271 | 0.0 | 8.0 | 0.00 | 0.00 | 0.00 | 61 | 1014.7 |
| 20260830123010 | 25 | 321 | 0.0 | 4.8 | 0.00 | 0.00 | 0.00 | 60 | 1014.7 |
| 20260830121508 | 24 | 302 | 0.0 | 4.8 | 0.00 | 0.00 | 0.00 | 62 | 1014.8 |
| 20260830120007 | 25 | 254 | 0.0 | 1.6 | 0.00 | 0.00 | 0.00 | 62 | 1014.8 |
| 20260830114506 | 24 | 292 | 0.0 | 4.8 | 0.00 | 0.00 | 0.00 | 63 | 1014.8 |
| 20260830113004 | 24 | 298 | 0.0 | 4.8 | 0.00 | 0.00 | 0.00 | 63 | 1015.1 |
| 20260830111600 | 23 | 281 | 1.6 | 6.4 | 0.00 | 0.00 | 0.00 | 66 | 1015.1 |
| 20260830110101 | 22 | 289 | 0.0 | 3.2 | 0.00 | 0.00 | 0.00 | 67 | 1015.2 |
| 20260830104609 | 23 | 291 | 0.0 | 4.8 | 0.00 | 0.00 | 0.00 | 67 | 1015.3 |
| 20260830103059 | 22 | 252 | 0.0 | 4.8 | 0.00 | 0.00 | 0.00 | 69 | 1015.3 |
| 20260830101555 | 22 | 315 | 0.0 | 6.4 | 0.00 | 0.00 | 0.00 | 69 | 1015.4 |
| 20260830100057 | 22 | 305 | 3.2 | 8.0 | 0.00 | 0.00 | 0.00 | 66 | 1015.5 |
| 20260830094553 | 22 | 287 | 1.6 | 9.7 | 0.00 | 0.00 | 0.00 | 67 | 1015.5 |
| 20260830093052 | 22 | 275 | 0.0 | 1.6 | 0.00 | 0.00 | 0.00 | 68 | 1015.7 |
| 20260830091553 | 22 | 224 | 0.0 | 9.7 | 0.00 | 0.00 | 0.00 | 68 | 1015.7 |
| 20260830090052 | 22 | 286 | 0.0 | 9.7 | 0.00 | 0.00 | 0.00 | 67 | 1015.7 |
| 20260830084551 | 22 | 248 | 0.0 | 11.3 | 0.00 | 0.00 | 0.00 | 66 | 1015.6 |
| 20260830083055 | 22 | 338 | 0.0 | 6.4 | 0.00 | 0.00 | 0.00 | 65 | 1015.7 |
| 20260830081549 | 22 | 254 | 0.0 | 4.8 | 0.00 | 0.00 | 0.00 | 65 | 1015.7 |